This is the latest recevied weather packets stored in our database for station/object JH5EWP-13. If no packets are shown the sender has not sent any weather packets the latest 10 day(s).
| Time | Temp. | Humidity | Pressure | Rain* | Wind** | Luminosity | Snow |
|---|---|---|---|---|---|---|---|
| 1777836226 | 16.67° C | 68% | 996.9 hPa | 0 mm | - | - | - |
| 1777835326 | 16.11° C | 74% | 996.9 hPa | 0 mm | - | - | - |
| 1777834425 | 16.11° C | 78% | 996.6 hPa | 0 mm | - | - | - |
| 1777833525 | 16.11° C | 76% | 996.7 hPa | 0 mm | - | - | - |
| 1777832625 | 16.11° C | 75% | 996.6 hPa | 0 mm | - | - | - |
| 1777831725 | 16.11° C | 75% | 996.7 hPa | 0 mm | - | - | - |
| 1777830825 | 16.11° C | 74% | 996.6 hPa | 0 mm | - | - | - |
| 1777829925 | 16.11° C | 77% | 996.7 hPa | 0 mm | - | - | - |
| 1777829025 | 16.67° C | 76% | 996.6 hPa | 0 mm | - | - | - |
| 1777828125 | 16.67° C | 76% | 996.2 hPa | 0 mm | - | - | - |
| 1777827224 | 16.67° C | 76% | 996.3 hPa | 0 mm | - | - | - |
| 1777826325 | 16.67° C | 77% | 996.1 hPa | 0 mm | - | - | - |
| 1777825425 | 16.67° C | 78% | 995.7 hPa | 0 mm | - | - | - |
| 1777824525 | 16.67° C | 79% | 995.7 hPa | 0 mm | - | - | - |
| 1777823625 | 16.67° C | 80% | 995.6 hPa | 0 mm | - | - | - |
| 1777822726 | 16.67° C | 81% | 995.3 hPa | 0 mm | - | - | - |
| 1777821825 | 16.67° C | 81% | 995.3 hPa | 0 mm | - | - | - |
| 1777820925 | 16.67° C | 83% | 995.3 hPa | 0 mm | - | - | - |
| 1777820025 | 16.67° C | 85% | 995.2 hPa | 0 mm | - | - | - |
| 1777819125 | 16.67° C | 87% | 995.1 hPa | 0 mm | - | - | - |
| 1777818225 | 16.67° C | 88% | 994.9 hPa | 0 mm | - | - | - |
| 1777817325 | 16.67° C | 88% | 994.9 hPa | 0.25 mm | - | - | - |
| 1777816425 | 16.67° C | 88% | 994.8 hPa | 0.25 mm | - | - | - |
| 1777815524 | 16.67° C | 88% | 994.8 hPa | 0.25 mm | - | - | - |
| 1777814624 | 16.67° C | 88% | 994.9 hPa | 0.25 mm | - | - | - |
* Rain latest hour (hover to see other rain measurements)
** Current wind speed in m/s (hover to see current wind gust speed)